| time (UTC) | temp F | wind direction | speed MPH | gust MPH | rain 1hr in | rain 24hr in | rain mn in | humidity % | barometer mb |
| 20260506155035 | 57 | 0 | 0.0 | 2.0 | 0.00 | 0.00 | 0.00 | 88 | 1020.9 |
| 20260506154551 | 56 | 333 | 0.0 | 0.0 | 0.00 | 0.00 | 0.00 | 88 | 1020.9 |
| 20260506154036 | 56 | 0 | 0.0 | 2.0 | 0.00 | 0.00 | 0.00 | 89 | 1020.9 |
| 20260506153533 | 56 | 0 | 0.0 | 2.0 | 0.00 | 0.00 | 0.00 | 89 | 1020.9 |
| 20260506153046 | 55 | 221 | 0.0 | 2.0 | 0.00 | 0.00 | 0.00 | 89 | 1021.0 |
| 20260506152536 | 55 | 0 | 0.0 | 2.0 | 0.00 | 0.00 | 0.00 | 89 | 1021.0 |
| 20260506152035 | 55 | 0 | 0.0 | 2.0 | 0.00 | 0.00 | 0.00 | 89 | 1020.9 |
| 20260506151545 | 55 | 360 | 0.0 | 2.0 | 0.00 | 0.00 | 0.00 | 89 | 1020.9 |
| 20260506151035 | 55 | 0 | 0.0 | 1.0 | 0.00 | 0.00 | 0.00 | 90 | 1020.9 |
| 20260506150538 | 55 | 0 | 0.0 | 2.0 | 0.00 | 0.00 | 0.00 | 90 | 1020.9 |
| 20260506150045 | 55 | 0 | 0.0 | 2.0 | 0.00 | 0.00 | 0.00 | 89 | 1020.9 |
| 20260506145537 | 55 | 0 | 0.0 | 2.0 | 0.00 | 0.00 | 0.00 | 90 | 1021.0 |
| 20260506145035 | 54 | 318 | 0.0 | 2.0 | 0.00 | 0.00 | 0.00 | 90 | 1020.9 |
| 20260506144546 | 54 | 220 | 0.0 | 2.0 | 0.00 | 0.00 | 0.00 | 90 | 1020.8 |
| 20260506144035 | 54 | 201 | 0.0 | 2.0 | 0.00 | 0.00 | 0.00 | 89 | 1020.8 |
| 20260506143535 | 54 | 0 | 0.0 | 2.0 | 0.00 | 0.00 | 0.00 | 89 | 1020.7 |
| 20260506143042 | 54 | 0 | 0.0 | 1.0 | 0.00 | 0.00 | 0.00 | 89 | 1020.7 |
| 20260506142535 | 54 | 0 | 0.0 | 2.0 | 0.00 | 0.00 | 0.00 | 89 | 1020.7 |
| 20260506142035 | 54 | 0 | 0.0 | 2.0 | 0.00 | 0.00 | 0.00 | 89 | 1020.7 |
| 20260506141601 | 55 | 306 | 0.0 | 1.0 | 0.00 | 0.00 | 0.00 | 90 | 1020.6 |
| 20260506141036 | 55 | 0 | 0.0 | 2.0 | 0.00 | 0.00 | 0.00 | 90 | 1020.6 |
| 20260506140536 | 54 | 0 | 0.0 | 2.0 | 0.00 | 0.00 | 0.00 | 89 | 1020.6 |
| 20260506140048 | 54 | 0 | 0.0 | 2.0 | 0.00 | 0.00 | 0.00 | 88 | 1020.6 |
| 20260506135535 | 54 | 0 | 0.0 | 1.0 | 0.00 | 0.00 | 0.00 | 88 | 1020.5 |
| 20260506135040 | 54 | 319 | 0.0 | 1.0 | 0.00 | 0.00 | 0.00 | 89 | 1020.3 |
| 20260506134546 | 54 | 0 | 0.0 | 1.0 | 0.00 | 0.00 | 0.00 | 89 | 1020.5 |
| 20260506134033 | 54 | 0 | 0.0 | 1.0 | 0.00 | 0.00 | 0.00 | 89 | 1020.5 |
| 20260506133532 | 54 | 0 | 0.0 | 0.0 | 0.00 | 0.00 | 0.00 | 89 | 1020.4 |
| 20260506133045 | 54 | 0 | 0.0 | 0.0 | 0.00 | 0.00 | 0.00 | 89 | 1020.3 |
| 20260506132534 | 54 | 0 | 0.0 | 0.0 | 0.00 | 0.00 | 0.00 | 89 | 1020.3 |
| 20260506132036 | 54 | 0 | 0.0 | 0.0 | 0.00 | 0.00 | 0.00 | 89 | 1020.2 |
| 20260506131544 | 54 | 0 | 0.0 | 2.0 | 0.00 | 0.00 | 0.00 | 89 | 1020.3 |
| 20260506131031 | 54 | 0 | 0.0 | 2.0 | 0.00 | 0.00 | 0.00 | 89 | 1020.3 |
| 20260506130531 | 54 | 319 | 0.0 | 1.0 | 0.00 | 0.00 | 0.00 | 89 | 1020.2 |
| 20260506130045 | 54 | 0 | 0.0 | 2.0 | 0.00 | 0.00 | 0.00 | 89 | 1020.1 |
| 20260506125531 | 54 | 0 | 0.0 | 2.0 | 0.00 | 0.00 | 0.00 | 89 | 1020.1 |
| 20260506125033 | 54 | 0 | 0.0 | 2.0 | 0.00 | 0.00 | 0.00 | 89 | 1020.0 |
| 20260506124543 | 54 | 313 | 0.0 | 2.0 | 0.00 | 0.00 | 0.00 | 88 | 1020.0 |
| 20260506124032 | 54 | 0 | 0.0 | 1.0 | 0.00 | 0.00 | 0.00 | 88 | 1020.0 |
| 20260506123531 | 54 | 0 | 0.0 | 0.0 | 0.00 | 0.00 | 0.00 | 88 | 1020.0 |
| 20260506123048 | 54 | 0 | 0.0 | 0.0 | 0.00 | 0.00 | 0.00 | 88 | 1020.0 |
| 20260506122531 | 54 | 0 | 0.0 | 0.0 | 0.00 | 0.00 | 0.00 | 88 | 1020.0 |
| 20260506122030 | 54 | 0 | 0.0 | 0.0 | 0.00 | 0.00 | 0.00 | 87 | 1020.0 |
| 20260506121555 | 54 | 0 | 0.0 | 0.0 | 0.00 | 0.00 | 0.00 | 87 | 1019.9 |
| 20260506121031 | 54 | 0 | 0.0 | 0.0 | 0.00 | 0.00 | 0.00 | 87 | 1020.0 |
| 20260506120535 | 54 | 0 | 0.0 | 0.0 | 0.00 | 0.00 | 0.00 | 87 | 1020.0 |
| 20260506120109 | 54 | 0 | 0.0 | 0.0 | 0.00 | 0.00 | 0.00 | 87 | 1019.9 |
| 20260506115532 | 54 | 0 | 0.0 | 0.0 | 0.00 | 0.00 | 0.00 | 87 | 1019.9 |
| 20260506115032 | 54 | 0 | 0.0 | 0.0 | 0.00 | 0.00 | 0.00 | 87 | 1019.9 |
| 20260506114547 | 54 | 0 | 0.0 | 0.0 | 0.00 | 0.00 | 0.00 | 87 | 1019.8 |
| 20260506114031 | 54 | 0 | 0.0 | 0.0 | 0.00 | 0.00 | 0.00 | 87 | 1019.8 |
| 20260506113533 | 54 | 0 | 0.0 | 0.0 | 0.00 | 0.00 | 0.00 | 87 | 1019.8 |
| 20260506113040 | 54 | 0 | 0.0 | 0.0 | 0.00 | 0.00 | 0.00 | 87 | 1019.8 |
| 20260506112532 | 54 | 0 | 0.0 | 0.0 | 0.00 | 0.00 | 0.00 | 87 | 1019.7 |
| 20260506112031 | 54 | 0 | 0.0 | 0.0 | 0.00 | 0.00 | 0.00 | 87 | 1019.6 |
| 20260506111541 | 54 | 0 | 0.0 | 0.0 | 0.00 | 0.00 | 0.00 | 87 | 1019.6 |
| 20260506111031 | 54 | 0 | 0.0 | 0.0 | 0.00 | 0.00 | 0.00 | 87 | 1019.6 |
| 20260506110532 | 54 | 0 | 0.0 | 0.0 | 0.00 | 0.00 | 0.00 | 87 | 1019.6 |
| 20260506110048 | 54 | 0 | 0.0 | 0.0 | 0.00 | 0.00 | 0.00 | 87 | 1019.5 |
| 20260506105531 | 54 | 0 | 0.0 | 0.0 | 0.00 | 0.00 | 0.00 | 86 | 1019.4 |
| 20260506105030 | 54 | 0 | 0.0 | 0.0 | 0.00 | 0.00 | 0.00 | 86 | 1019.4 |
| 20260506104547 | 54 | 0 | 0.0 | 0.0 | 0.00 | 0.00 | 0.00 | 86 | 1019.3 |
| 20260506104031 | 54 | 0 | 0.0 | 0.0 | 0.00 | 0.00 | 0.00 | 86 | 1019.3 |
| 20260506103535 | 54 | 0 | 0.0 | 0.0 | 0.00 | 0.00 | 0.00 | 86 | 1019.2 |
| 20260506103044 | 54 | 0 | 0.0 | 0.0 | 0.00 | 0.00 | 0.00 | 86 | 1019.2 |
| 20260506102535 | 54 | 0 | 0.0 | 0.0 | 0.00 | 0.00 | 0.00 | 86 | 1019.2 |
| 20260506102034 | 54 | 0 | 0.0 | 0.0 | 0.00 | 0.00 | 0.00 | 86 | 1019.1 |
| 20260506101548 | 54 | 0 | 0.0 | 0.0 | 0.00 | 0.00 | 0.00 | 86 | 1019.1 |
| 20260506101033 | 54 | 0 | 0.0 | 0.0 | 0.00 | 0.00 | 0.00 | 86 | 1019.0 |
| 20260506100534 | 54 | 0 | 0.0 | 0.0 | 0.00 | 0.00 | 0.00 | 86 | 1019.0 |
| 20260506100041 | 54 | 0 | 0.0 | 0.0 | 0.00 | 0.00 | 0.00 | 86 | 1019.0 |
| 20260506095534 | 54 | 0 | 0.0 | 0.0 | 0.00 | 0.00 | 0.00 | 86 | 1019.1 |
| 20260506095033 | 54 | 0 | 0.0 | 0.0 | 0.00 | 0.00 | 0.00 | 85 | 1019.0 |
| 20260506094546 | 54 | 0 | 0.0 | 0.0 | 0.00 | 0.00 | 0.00 | 86 | 1019.0 |
| 20260506094034 | 54 | 0 | 0.0 | 0.0 | 0.00 | 0.00 | 0.00 | 86 | 1019.1 |
| 20260506093539 | 54 | 0 | 0.0 | 0.0 | 0.00 | 0.00 | 0.00 | 86 | 1019.0 |
| 20260506093050 | 54 | 0 | 0.0 | 0.0 | 0.00 | 0.00 | 0.00 | 85 | 1018.9 |
| 20260506092534 | 54 | 0 | 0.0 | 0.0 | 0.00 | 0.00 | 0.00 | 86 | 1018.9 |
| 20260506092035 | 54 | 0 | 0.0 | 0.0 | 0.00 | 0.00 | 0.00 | 86 | 1019.0 |
| 20260506091546 | 54 | 0 | 0.0 | 0.0 | 0.00 | 0.00 | 0.00 | 86 | 1019.0 |
| 20260506091035 | 54 | 0 | 0.0 | 0.0 | 0.00 | 0.00 | 0.00 | 86 | 1019.0 |
| 20260506090534 | 54 | 0 | 0.0 | 1.0 | 0.00 | 0.00 | 0.00 | 86 | 1019.0 |
| 20260506090045 | 54 | 0 | 0.0 | 1.0 | 0.00 | 0.00 | 0.00 | 85 | 1018.9 |
| 20260506085535 | 54 | 0 | 0.0 | 2.0 | 0.00 | 0.00 | 0.00 | 85 | 1018.9 |
| 20260506085035 | 54 | 0 | 0.0 | 2.0 | 0.00 | 0.00 | 0.00 | 85 | 1018.9 |
| 20260506084544 | 54 | 290 | 0.0 | 2.0 | 0.00 | 0.00 | 0.00 | 85 | 1018.9 |
| 20260506084035 | 54 | 0 | 0.0 | 2.0 | 0.00 | 0.00 | 0.00 | 85 | 1019.0 |
| 20260506083538 | 54 | 0 | 0.0 | 3.0 | 0.00 | 0.00 | 0.00 | 85 | 1019.0 |
| 20260506083051 | 54 | 0 | 0.0 | 3.0 | 0.00 | 0.00 | 0.00 | 85 | 1019.1 |
| 20260506082534 | 54 | 0 | 0.0 | 3.0 | 0.00 | 0.00 | 0.00 | 85 | 1019.0 |
| 20260506082033 | 54 | 0 | 0.0 | 2.0 | 0.00 | 0.00 | 0.00 | 85 | 1019.1 |
| 20260506081552 | 54 | 0 | 0.0 | 2.0 | 0.00 | 0.00 | 0.00 | 85 | 1019.1 |
| 20260506081035 | 54 | 0 | 0.0 | 2.0 | 0.00 | 0.00 | 0.00 | 85 | 1019.1 |
| 20260506080537 | 54 | 0 | 0.0 | 3.0 | 0.00 | 0.00 | 0.00 | 85 | 1019.0 |
| 20260506073050 | 54 | 0 | 1.0 | 3.0 | 0.00 | 0.00 | 0.00 | 84 | 1018.8 |
| 20260506072535 | 54 | 0 | 0.0 | 2.0 | 0.00 | 0.00 | 0.00 | 84 | 1018.7 |
| 20260506072033 | 54 | 303 | 0.0 | 3.0 | 0.00 | 0.00 | 0.00 | 84 | 1018.6 |
| 20260506071550 | 54 | 0 | 0.0 | 3.0 | 0.00 | 0.00 | 0.00 | 84 | 1018.6 |
| 20260506071035 | 54 | 292 | 1.0 | 3.0 | 0.00 | 0.00 | 0.00 | 84 | 1018.6 |
| 20260506070533 | 55 | 0 | 0.0 | 2.0 | 0.00 | 0.00 | 0.00 | 84 | 1018.5 |
| 20260506070105 | 55 | 331 | 0.0 | 3.0 | 0.00 | 0.00 | 0.00 | 84 | 1018.4 |
| 20260506062034 | 55 | 313 | 1.0 | 4.0 | 0.00 | 0.00 | 0.00 | 83 | 1017.9 |
| 20260506061545 | 55 | 313 | 0.0 | 4.0 | 0.00 | 0.00 | 0.00 | 83 | 1017.9 |
| 20260506061034 | 55 | 0 | 0.0 | 4.0 | 0.00 | 0.00 | 0.00 | 83 | 1017.9 |
| 20260506060534 | 55 | 307 | 1.0 | 4.0 | 0.00 | 0.00 | 0.00 | 83 | 1017.9 |
| 20260506051035 | 55 | 0 | 0.0 | 4.0 | 0.00 | 0.00 | 0.00 | 83 | 1017.7 |
| 20260506050534 | 55 | 0 | 1.0 | 4.0 | 0.00 | 0.00 | 0.00 | 83 | 1017.7 |
| 20260506045033 | 55 | 317 | 1.0 | 4.0 | 0.00 | 0.00 | 0.00 | 82 | 1017.6 |
| 20260506044556 | 55 | 300 | 1.0 | 3.0 | 0.00 | 0.00 | 0.00 | 82 | 1017.5 |
| 20260506044036 | 55 | 317 | 0.0 | 4.0 | 0.00 | 0.00 | 0.00 | 82 | 1017.5 |
| 20260506043533 | 55 | 352 | 1.0 | 4.0 | 0.00 | 0.00 | 0.00 | 82 | 1017.3 |
| 20260506043046 | 55 | 304 | 1.0 | 4.0 | 0.00 | 0.00 | 0.00 | 82 | 1017.3 |
| 20260506042533 | 55 | 0 | 0.0 | 5.0 | 0.00 | 0.00 | 0.00 | 82 | 1017.2 |
| 20260506042035 | 55 | 292 | 1.0 | 7.0 | 0.00 | 0.00 | 0.00 | 81 | 1017.1 |
| 20260506041551 | 55 | 338 | 2.0 | 7.0 | 0.00 | 0.00 | 0.00 | 81 | 1017.0 |
| 20260506041032 | 55 | 352 | 1.0 | 6.0 | 0.00 | 0.00 | 0.00 | 81 | 1017.0 |
| 20260506040532 | 55 | 348 | 2.0 | 7.0 | 0.00 | 0.00 | 0.00 | 81 | 1016.9 |
| 20260506040044 | 56 | 328 | 2.0 | 7.0 | 0.00 | 0.00 | 0.00 | 81 | 1016.9 |
| 20260506035533 | 56 | 288 | 2.0 | 5.0 | 0.00 | 0.00 | 0.00 | 81 | 1016.8 |
| 20260506035032 | 56 | 343 | 1.0 | 5.0 | 0.00 | 0.00 | 0.00 | 81 | 1016.6 |
| 20260506034549 | 56 | 286 | 2.0 | 8.0 | 0.00 | 0.00 | 0.00 | 81 | 1016.6 |
| 20260506034033 | 56 | 333 | 2.0 | 8.0 | 0.00 | 0.00 | 0.00 | 81 | 1016.5 |
| 20260506033531 | 56 | 344 | 1.0 | 5.0 | 0.00 | 0.00 | 0.00 | 81 | 1016.4 |
| 20260506033046 | 55 | 342 | 1.0 | 5.0 | 0.00 | 0.00 | 0.00 | 81 | 1016.2 |
| 20260506032533 | 56 | 311 | 1.0 | 4.0 | 0.00 | 0.00 | 0.00 | 81 | 1016.1 |
| 20260506032032 | 56 | 321 | 1.0 | 4.0 | 0.00 | 0.00 | 0.00 | 81 | 1016.1 |
| 20260506031556 | 56 | 0 | 0.0 | 4.0 | 0.00 | 0.00 | 0.00 | 80 | 1016.0 |
| 20260506031032 | 56 | 351 | 1.0 | 5.0 | 0.00 | 0.00 | 0.00 | 80 | 1015.9 |
| 20260506030532 | 56 | 324 | 1.0 | 5.0 | 0.00 | 0.00 | 0.00 | 79 | 1015.9 |
| 20260506030057 | 56 | 5 | 1.0 | 6.0 | 0.00 | 0.00 | 0.00 | 79 | 1015.8 |
| 20260506025533 | 57 | 325 | 2.0 | 7.0 | 0.00 | 0.00 | 0.00 | 79 | 1015.8 |
| 20260506025032 | 57 | 0 | 2.0 | 7.0 | 0.00 | 0.00 | 0.00 | 78 | 1015.7 |
| 20260506024543 | 57 | 298 | 2.0 | 7.0 | 0.00 | 0.00 | 0.00 | 78 | 1015.7 |
| 20260506024032 | 57 | 310 | 3.0 | 7.0 | 0.00 | 0.00 | 0.00 | 77 | 1015.7 |
| 20260506023532 | 58 | 343 | 2.0 | 8.0 | 0.00 | 0.00 | 0.00 | 77 | 1015.6 |
| 20260506023040 | 58 | 309 | 3.0 | 8.0 | 0.00 | 0.00 | 0.00 | 76 | 1015.5 |
| 20260506022533 | 59 | 360 | 3.0 | 9.0 | 0.00 | 0.00 | 0.00 | 76 | 1015.4 |
| 20260506022032 | 59 | 352 | 2.0 | 9.0 | 0.00 | 0.00 | 0.00 | 75 | 1015.4 |
| 20260506021548 | 59 | 348 | 2.0 | 9.0 | 0.00 | 0.00 | 0.00 | 75 | 1015.3 |
| 20260506021032 | 59 | 297 | 3.0 | 9.0 | 0.00 | 0.00 | 0.00 | 74 | 1015.3 |
| 20260506020535 | 60 | 240 | 2.0 | 9.0 | 0.00 | 0.00 | 0.00 | 73 | 1015.2 |
| 20260506020045 | 60 | 33 | 3.0 | 10.0 | 0.00 | 0.00 | 0.00 | 73 | 1015.2 |
| 20260506015532 | 60 | 288 | 2.0 | 10.0 | 0.00 | 0.00 | 0.00 | 73 | 1015.1 |
| 20260506015033 | 61 | 321 | 4.0 | 10.0 | 0.00 | 0.00 | 0.00 | 72 | 1015.0 |
| 20260506014544 | 61 | 300 | 3.0 | 10.0 | 0.00 | 0.00 | 0.00 | 71 | 1014.9 |
| 20260506014033 | 62 | 294 | 3.0 | 10.0 | 0.00 | 0.00 | 0.00 | 69 | 1014.9 |
| 20260506013532 | 63 | 292 | 4.0 | 10.0 | 0.00 | 0.00 | 0.00 | 68 | 1014.7 |
| 20260506013046 | 63 | 9 | 3.0 | 12.0 | 0.00 | 0.00 | 0.00 | 67 | 1014.8 |
| 20260506012532 | 64 | 317 | 2.0 | 12.0 | 0.00 | 0.00 | 0.00 | 66 | 1014.6 |
| 20260506012032 | 64 | 360 | 2.0 | 8.0 | 0.00 | 0.00 | 0.00 | 68 | 1014.7 |
| 20260506011550 | 64 | 13 | 3.0 | 10.0 | 0.00 | 0.00 | 0.00 | 66 | 1014.6 |
| 20260506011032 | 64 | 23 | 2.0 | 10.0 | 0.00 | 0.00 | 0.00 | 67 | 1014.6 |
| 20260506010532 | 64 | 12 | 3.0 | 9.0 | 0.00 | 0.00 | 0.00 | 66 | 1014.6 |
| 20260506010054 | 64 | 302 | 2.0 | 10.0 | 0.00 | 0.00 | 0.00 | 67 | 1014.4 |
| 20260506005533 | 65 | 315 | 3.0 | 10.0 | 0.00 | 0.00 | 0.00 | 66 | 1014.4 |
| 20260506005036 | 65 | 323 | 2.0 | 10.0 | 0.00 | 0.00 | 0.00 | 66 | 1014.5 |
| 20260506004621 | 65 | 290 | 3.0 | 10.0 | 0.00 | 0.00 | 0.00 | 66 | 1014.4 |
| 20260506004033 | 65 | 33 | 3.0 | 10.0 | 0.00 | 0.00 | 0.00 | 67 | 1014.4 |
| 20260506003532 | 65 | 25 | 4.0 | 10.0 | 0.00 | 0.00 | 0.00 | 67 | 1014.3 |
| 20260506003045 | 65 | 327 | 4.0 | 9.0 | 0.00 | 0.00 | 0.00 | 66 | 1014.3 |
| 20260506002532 | 65 | 30 | 4.0 | 9.0 | 0.00 | 0.00 | 0.00 | 66 | 1014.2 |
| 20260506002034 | 65 | 320 | 3.0 | 10.0 | 0.00 | 0.00 | 0.00 | 67 | 1014.2 |
| 20260506001545 | 64 | 326 | 3.0 | 10.0 | 0.00 | 0.00 | 0.00 | 67 | 1014.1 |
| 20260506001032 | 65 | 343 | 3.0 | 9.0 | 0.00 | 0.00 | 0.00 | 66 | 1014.2 |
| 20260506000532 | 65 | 291 | 3.0 | 10.0 | 0.00 | 0.00 | 0.00 | 65 | 1014.1 |
| 20260506000047 | 65 | 329 | 4.0 | 10.0 | 0.00 | 0.00 | 0.00 | 66 | 1014.1 |
| 20260505235531 | 65 | 360 | 3.0 | 10.0 | 0.00 | 0.00 | 0.00 | 65 | 1014.1 |
| 20260505235034 | 66 | 306 | 3.0 | 10.0 | 0.00 | 0.00 | 0.00 | 65 | 1014.1 |
| 20260505234607 | 66 | 249 | 4.0 | 10.0 | 0.00 | 0.00 | 0.00 | 63 | 1014.2 |
| 20260505234032 | 67 | 347 | 4.0 | 11.0 | 0.00 | 0.00 | 0.00 | 62 | 1014.1 |
| 20260505233532 | 67 | 182 | 4.0 | 11.0 | 0.00 | 0.00 | 0.00 | 62 | 1014.0 |
| 20260505233041 | 68 | 309 | 4.0 | 10.0 | 0.00 | 0.00 | 0.00 | 63 | 1013.9 |
| 20260505232531 | 68 | 279 | 1.0 | 10.0 | 0.00 | 0.00 | 0.00 | 61 | 1014.0 |
| 20260505232034 | 69 | 317 | 2.0 | 11.0 | 0.00 | 0.00 | 0.00 | 62 | 1014.0 |
| 20260505231551 | 69 | 348 | 5.0 | 11.0 | 0.00 | 0.00 | 0.00 | 60 | 1013.9 |
| 20260505231032 | 70 | 341 | 3.0 | 8.0 | 0.00 | 0.00 | 0.00 | 59 | 1013.9 |
| 20260505230532 | 70 | 344 | 1.0 | 10.0 | 0.00 | 0.00 | 0.00 | 61 | 1013.9 |
| 20260505230047 | 70 | 9 | 3.0 | 10.0 | 0.00 | 0.00 | 0.00 | 59 | 1013.9 |
| 20260505225534 | 70 | 352 | 4.0 | 10.0 | 0.00 | 0.00 | 0.00 | 59 | 1013.9 |
| 20260505225033 | 71 | 5 | 3.0 | 10.0 | 0.00 | 0.00 | 0.00 | 57 | 1013.9 |
| 20260505224551 | 71 | 352 | 2.0 | 9.0 | 0.00 | 0.00 | 0.00 | 59 | 1013.9 |
| 20260505224034 | 70 | 341 | 4.0 | 10.0 | 0.00 | 0.00 | 0.00 | 60 | 1013.9 |
| 20260505223534 | 70 | 277 | 2.0 | 10.0 | 0.00 | 0.00 | 0.00 | 60 | 1014.0 |
| 20260505223058 | 71 | 300 | 3.0 | 10.0 | 0.00 | 0.00 | 0.00 | 57 | 1014.0 |
| 20260505222538 | 72 | 227 | 2.0 | 10.0 | 0.00 | 0.00 | 0.00 | 56 | 1013.9 |
| 20260505222031 | 72 | 320 | 1.0 | 6.0 | 0.00 | 0.00 | 0.00 | 58 | 1014.0 |
| 20260505221556 | 72 | 231 | 2.0 | 6.0 | 0.00 | 0.00 | 0.00 | 61 | 1014.1 |
| 20260505221031 | 71 | 196 | 1.0 | 4.0 | 0.00 | 0.00 | 0.00 | 58 | 1014.1 |
| 20260505220537 | 70 | 352 | 0.0 | 4.0 | 0.00 | 0.00 | 0.00 | 58 | 1014.0 |
| 20260505220048 | 70 | 0 | 1.0 | 4.0 | 0.00 | 0.00 | 0.00 | 57 | 1014.1 |
| 20260505215532 | 69 | 61 | 0.0 | 5.0 | 0.00 | 0.01 | 0.00 | 60 | 1014.2 |
| 20260505215034 | 70 | 307 | 2.0 | 5.0 | 0.00 | 0.01 | 0.00 | 61 | 1014.2 |
| 20260505214604 | 71 | 296 | 1.0 | 7.0 | 0.00 | 0.01 | 0.00 | 57 | 1014.2 |
| 20260505214032 | 71 | 300 | 1.0 | 7.0 | 0.00 | 0.01 | 0.00 | 59 | 1014.3 |
| 20260505213533 | 70 | 292 | 3.0 | 7.0 | 0.00 | 0.01 | 0.00 | 57 | 1014.2 |
| 20260505213046 | 71 | 326 | 1.0 | 5.0 | 0.00 | 0.01 | 0.00 | 60 | 1014.3 |
| 20260505212531 | 71 | 325 | 1.0 | 5.0 | 0.00 | 0.01 | 0.00 | 55 | 1014.3 |
| 20260505212035 | 71 | 5 | 1.0 | 4.0 | 0.00 | 0.01 | 0.00 | 62 | 1014.3 |
| 20260505211544 | 70 | 0 | 1.0 | 4.0 | 0.00 | 0.01 | 0.00 | 56 | 1014.4 |
| 20260505211035 | 71 | 150 | 1.0 | 4.0 | 0.00 | 0.01 | 0.00 | 59 | 1014.4 |
| 20260505210534 | 70 | 164 | 1.0 | 4.0 | 0.00 | 0.01 | 0.00 | 60 | 1014.4 |
| 20260505210044 | 69 | 336 | 2.0 | 4.0 | 0.00 | 0.01 | 0.00 | 58 | 1014.5 |
| 20260505205531 | 70 | 0 | 1.0 | 6.0 | 0.00 | 0.01 | 0.00 | 60 | 1014.5 |
| 20260505205032 | 69 | 0 | 2.0 | 6.0 | 0.00 | 0.01 | 0.00 | 62 | 1014.6 |
| 20260505204543 | 69 | 204 | 1.0 | 5.0 | 0.00 | 0.01 | 0.00 | 57 | 1014.6 |
| 20260505204031 | 70 | 331 | 1.0 | 5.0 | 0.00 | 0.01 | 0.00 | 61 | 1014.6 |
| 20260505203531 | 69 | 145 | 2.0 | 5.0 | 0.00 | 0.01 | 0.00 | 60 | 1014.7 |
| 20260505203040 | 69 | 9 | 1.0 | 5.0 | 0.00 | 0.01 | 0.00 | 65 | 1014.7 |
| 20260505202534 | 68 | 0 | 0.0 | 5.0 | 0.00 | 0.01 | 0.00 | 62 | 1014.8 |
| 20260505202030 | 68 | 150 | 1.0 | 3.0 | 0.00 | 0.01 | 0.00 | 62 | 1014.7 |
| 20260505201559 | 68 | 61 | 1.0 | 4.0 | 0.00 | 0.01 | 0.00 | 63 | 1014.8 |
| 20260505201035 | 67 | 225 | 1.0 | 5.0 | 0.00 | 0.01 | 0.00 | 64 | 1014.9 |
| 20260505200530 | 66 | 170 | 1.0 | 5.0 | 0.00 | 0.01 | 0.00 | 61 | 1015.0 |
| 20260505200059 | 67 | 165 | 1.0 | 4.0 | 0.00 | 0.01 | 0.00 | 65 | 1015.0 |
| 20260505195531 | 66 | 0 | 0.0 | 4.0 | 0.00 | 0.09 | 0.00 | 64 | 1015.0 |
| 20260505195034 | 67 | 0 | 1.0 | 4.0 | 0.00 | 0.09 | 0.00 | 65 | 1014.9 |
| 20260505194550 | 66 | 0 | 1.0 | 5.0 | 0.00 | 0.09 | 0.00 | 65 | 1015.0 |
| 20260505194035 | 66 | 0 | 1.0 | 5.0 | 0.00 | 0.09 | 0.00 | 67 | 1015.0 |
| 20260505193532 | 65 | 0 | 2.0 | 4.0 | 0.00 | 0.09 | 0.00 | 67 | 1015.0 |
| 20260505193050 | 65 | 145 | 1.0 | 4.0 | 0.00 | 0.09 | 0.00 | 66 | 1015.0 |
| 20260505192534 | 66 | 349 | 1.0 | 3.0 | 0.00 | 0.09 | 0.00 | 67 | 1015.1 |
| 20260505192032 | 66 | 34 | 1.0 | 3.0 | 0.00 | 0.09 | 0.00 | 67 | 1015.2 |
| 20260505191543 | 65 | 53 | 1.0 | 4.0 | 0.00 | 0.09 | 0.00 | 67 | 1015.2 |
| 20260505191035 | 64 | 308 | 1.0 | 4.0 | 0.00 | 0.09 | 0.00 | 67 | 1015.3 |
| 20260505190536 | 65 | 304 | 0.0 | 7.0 | 0.00 | 0.09 | 0.00 | 69 | 1015.2 |
| 20260505190054 | 63 | 309 | 2.0 | 7.0 | 0.00 | 0.09 | 0.00 | 67 | 1015.3 |
| 20260505185536 | 64 | 5 | 0.0 | 6.0 | 0.00 | 0.11 | 0.00 | 70 | 1015.3 |
| 20260505185036 | 62 | 300 | 2.0 | 6.0 | 0.00 | 0.11 | 0.00 | 69 | 1015.3 |
| 20260505184548 | 62 | 218 | 2.0 | 6.0 | 0.00 | 0.11 | 0.00 | 70 | 1015.3 |
| 20260505184036 | 62 | 272 | 0.0 | 4.0 | 0.00 | 0.11 | 0.00 | 68 | 1015.3 |
| 20260505183533 | 62 | 271 | 0.0 | 4.0 | 0.00 | 0.11 | 0.00 | 72 | 1015.4 |
| 20260505183048 | 63 | 22 | 0.0 | 4.0 | 0.00 | 0.11 | 0.00 | 69 | 1015.3 |
| 20260505182536 | 64 | 0 | 1.0 | 4.0 | 0.00 | 0.11 | 0.00 | 67 | 1015.3 |
| 20260505182034 | 62 | 334 | 1.0 | 5.0 | 0.00 | 0.11 | 0.00 | 68 | 1015.3 |
| 20260505181542 | 63 | 30 | 1.0 | 5.0 | 0.00 | 0.11 | 0.00 | 69 | 1015.3 |
| 20260505181038 | 61 | 0 | 1.0 | 7.0 | 0.00 | 0.11 | 0.00 | 69 | 1015.2 |
| 20260505180534 | 60 | 271 | 2.0 | 7.0 | 0.00 | 0.11 | 0.00 | 71 | 1015.2 |
| 20260505180052 | 60 | 0 | 0.0 | 7.0 | 0.00 | 0.11 | 0.00 | 72 | 1015.2 |
| 20260505175534 | 61 | 5 | 0.0 | 8.0 | 0.00 | 0.11 | 0.00 | 73 | 1015.2 |
| 20260505175034 | 61 | 326 | 2.0 | 8.0 | 0.00 | 0.11 | 0.00 | 69 | 1015.2 |
| 20260505174550 | 61 | 212 | 1.0 | 5.0 | 0.00 | 0.11 | 0.00 | 70 | 1015.1 |
| 20260505174034 | 60 | 0 | 1.0 | 4.0 | 0.00 | 0.11 | 0.00 | 73 | 1015.1 |
| 20260505173536 | 59 | 323 | 1.0 | 4.0 | 0.00 | 0.11 | 0.00 | 75 | 1015.0 |
| 20260505173053 | 59 | 306 | 1.0 | 4.0 | 0.00 | 0.11 | 0.00 | 74 | 1015.1 |
| 20260505172534 | 59 | 0 | 1.0 | 3.0 | 0.00 | 0.11 | 0.00 | 75 | 1015.0 |
| 20260505172036 | 58 | 0 | 0.0 | 4.0 | 0.00 | 0.11 | 0.00 | 77 | 1015.0 |
| 20260505171552 | 59 | 0 | 1.0 | 4.0 | 0.00 | 0.11 | 0.00 | 74 | 1015.0 |
| 20260505171035 | 59 | 0 | 0.0 | 7.0 | 0.00 | 0.11 | 0.00 | 76 | 1015.0 |
| 20260505170534 | 58 | 18 | 0.0 | 7.0 | 0.00 | 0.11 | 0.00 | 77 | 1015.1 |
| 20260505170044 | 58 | 288 | 1.0 | 5.0 | 0.00 | 0.11 | 0.00 | 75 | 1015.1 |
| 20260505165535 | 58 | 286 | 0.0 | 4.0 | 0.00 | 0.11 | 0.00 | 77 | 1015.1 |
| 20260505165036 | 58 | 290 | 1.0 | 4.0 | 0.00 | 0.11 | 0.00 | 76 | 1015.0 |
| 20260505164606 | 58 | 0 | 1.0 | 4.0 | 0.00 | 0.11 | 0.00 | 77 | 1015.0 |
| 20260505164035 | 57 | 263 | 1.0 | 3.0 | 0.00 | 0.11 | 0.00 | 76 | 1015.0 |
| 20260505163535 | 57 | 0 | 0.0 | 3.0 | 0.00 | 0.11 | 0.00 | 81 | 1015.0 |
| 20260505163051 | 56 | 338 | 1.0 | 3.0 | 0.00 | 0.11 | 0.00 | 79 | 1015.0 |
| 20260505162534 | 56 | 346 | 1.0 | 5.0 | 0.00 | 0.11 | 0.00 | 79 | 1014.9 |
| 20260505162034 | 56 | 0 | 1.0 | 8.0 | 0.00 | 0.11 | 0.00 | 78 | 1014.9 |
| 20260505161545 | 56 | 346 | 1.0 | 8.0 | 0.00 | 0.11 | 0.00 | 80 | 1015.0 |
| 20260505161034 | 55 | 279 | 2.0 | 8.0 | 0.00 | 0.11 | 0.00 | 78 | 1015.0 |
| 20260505160534 | 55 | 0 | 1.0 | 7.0 | 0.00 | 0.11 | 0.00 | 80 | 1014.9 |